User: anonymous   Login
Location: Copeville
(33.0796°N, 96.4155°W)
Time: 21:43:10
(UTC+00:00)
Language:

NOAA 19 - Orbit

View from above orbital plane
View from above orbital plane
View from above satellite
View from above satellite

Ground track
Ground track

The orbit data is extracted from the following two-line orbital elements,

1 33591U 09005A   23081.49378659  .00000294  00000-0  18307-3 0  9997
2 33591  99.1119 125.9922 0014767 125.1993 235.0564 14.12714832727709
Epoch (UTC): 22 March 2023 11:51:03
Eccentricity: 0.0014767
inclination: 99.1119°
perigee height: 839 km
apogee height: 861 km
right ascension of ascending node: 125.9922°
argument of perigee: 125.1993°
revolutions per day: 14.12714832
mean anomaly at epoch: 235.0564°
orbit number at epoch: 72770

The dashed part of the orbit path shows where the satellite is in the earth's shadow,  

DLR